This is the latest recevied weather packets stored in our database for station/object OE5XFR. If no packets are shown the sender has not sent any weather packets the latest 1 day(s).
| Time | Temp. | Humidity | Pressure | Rain* | Wind** | Luminosity | Snow |
|---|---|---|---|---|---|---|---|
| 1777960635 | 12.78° C | 65% | 1010 hPa | 0 mm | 1.79 m/s, 237° | - | - |
| 1777959915 | 12.22° C | 66% | 1010 hPa | 0 mm | 1.79 m/s, 271° | - | - |
| 1777959195 | 11.67° C | 67% | 1010 hPa | 0 mm | 1.34 m/s, 252° | - | - |
| 1777958475 | 11.67° C | 67% | 1010 hPa | 0 mm | 1.79 m/s, 225° | - | - |
| 1777957756 | 11.67° C | 64% | 1010 hPa | 0 mm | 1.34 m/s, 248° | - | - |
| 1777957035 | 12.22° C | 62% | 1010 hPa | 0 mm | 2.24 m/s, 252° | - | - |
| 1777956315 | 12.22° C | 62% | 1010 hPa | 0 mm | 2.24 m/s, 252° | - | - |
| 1777955595 | 12.78° C | 60% | 1010 hPa | 0 mm | 2.24 m/s, 277° | - | - |
| 1777954875 | 13.33° C | 58% | 1011 hPa | 0 mm | 1.79 m/s, 270° | - | - |
| 1777954155 | 13.33° C | 57% | 1011 hPa | 0 mm | 1.34 m/s, 237° | - | - |
| 1777953435 | 13.89° C | 57% | 1011 hPa | 0 mm | 1.79 m/s, 263° | - | - |
| 1777952716 | 13.89° C | 57% | 1011 hPa | 0 mm | 1.79 m/s, 263° | - | - |
| 1777951996 | 14.44° C | 54% | 1011 hPa | 0 mm | 1.79 m/s, 238° | - | - |
| 1777951275 | 14.44° C | 54% | 1011 hPa | 0 mm | 1.79 m/s, 238° | - | - |
| 1777950555 | 14.44° C | 54% | 1011 hPa | 0 mm | 2.24 m/s, 244° | - | - |
| 1777949835 | 14.44° C | 55% | 1011 hPa | 0 mm | 0.89 m/s, 207° | - | - |
| 1777949115 | 14.44° C | 55% | 1011 hPa | 0 mm | 2.24 m/s, 240° | - | - |
| 1777948395 | 14.44° C | 54% | 1011 hPa | 0 mm | 3.13 m/s, 255° | - | - |
| 1777947675 | 15° C | 53% | 1011 hPa | 0 mm | 3.13 m/s, 243° | - | - |
| 1777946955 | 15° C | 51% | 1011 hPa | 0 mm | 3.13 m/s, 251° | - | - |
| 1777946235 | 15° C | 52% | 1011 hPa | 0 mm | 1.79 m/s, 247° | - | - |
| 1777945515 | 15° C | 53% | 1011 hPa | 0 mm | 1.34 m/s, 246° | - | - |
* Rain latest hour (hover to see other rain measurements)
** Current wind speed in m/s (hover to see current wind gust speed)